| time (UTC) | temp F | wind direction | speed knots | gust knots | rain 1hr in | rain 24hr in | rain mn in | humidity % | barometer mb |
| 20260506135507 | 49 | 360 | 4.3 | 10.4 | 0.00 | 0.00 | 0.00 | 74 | 1016.3 |
| 20260506135011 | 49 | 346 | 3.5 | 10.4 | 0.00 | 0.00 | 0.00 | 75 | 1016.2 |
| 20260506134527 | 49 | 61 | 4.3 | 11.3 | 0.00 | 0.00 | 0.00 | 75 | 1016.4 |
| 20260506134007 | 49 | 78 | 3.5 | 11.3 | 0.00 | 0.00 | 0.00 | 75 | 1016.3 |
| 20260506133504 | 49 | 348 | 2.6 | 11.3 | 0.00 | 0.00 | 0.00 | 75 | 1016.4 |
| 20260506133015 | 48 | 24 | 3.5 | 11.3 | 0.00 | 0.00 | 0.00 | 75 | 1016.4 |
| 20260506132504 | 49 | 352 | 4.3 | 11.3 | 0.00 | 0.00 | 0.00 | 75 | 1016.4 |
| 20260506132005 | 49 | 360 | 4.3 | 9.6 | 0.00 | 0.00 | 0.00 | 75 | 1016.4 |
| 20260506131515 | 48 | 40 | 3.5 | 9.6 | 0.00 | 0.00 | 0.00 | 75 | 1016.2 |
| 20260506131007 | 48 | 348 | 4.3 | 10.4 | 0.00 | 0.00 | 0.00 | 75 | 1016.3 |
| 20260506130507 | 48 | 346 | 4.3 | 10.4 | 0.00 | 0.00 | 0.00 | 75 | 1016.1 |
| 20260506130018 | 48 | 45 | 2.6 | 10.4 | 0.00 | 0.00 | 0.00 | 74 | 1015.9 |
| 20260506125506 | 48 | 11 | 3.5 | 10.4 | 0.00 | 0.00 | 0.00 | 74 | 1015.8 |
| 20260506125006 | 48 | 22 | 3.5 | 8.7 | 0.00 | 0.00 | 0.00 | 74 | 1015.7 |
| 20260506124516 | 48 | 40 | 1.7 | 8.7 | 0.00 | 0.00 | 0.00 | 74 | 1015.7 |
| 20260506124006 | 48 | 26 | 4.3 | 8.7 | 0.00 | 0.00 | 0.00 | 74 | 1015.6 |
| 20260506123510 | 48 | 22 | 1.7 | 10.4 | 0.00 | 0.00 | 0.00 | 74 | 1015.4 |
| 20260506123028 | 48 | 67 | 4.3 | 10.4 | 0.00 | 0.00 | 0.00 | 74 | 1015.3 |
| 20260506122511 | 48 | 74 | 2.6 | 9.6 | 0.00 | 0.00 | 0.00 | 74 | 1015.3 |
| 20260506122012 | 48 | 344 | 2.6 | 9.6 | 0.00 | 0.00 | 0.00 | 74 | 1015.5 |
| 20260506121530 | 48 | 348 | 3.5 | 8.7 | 0.00 | 0.00 | 0.00 | 73 | 1015.3 |
| 20260506121009 | 48 | 9 | 4.3 | 8.7 | 0.00 | 0.00 | 0.00 | 73 | 1015.3 |
| 20260506120510 | 48 | 344 | 2.6 | 8.7 | 0.00 | 0.00 | 0.00 | 74 | 1015.4 |
| 20260506120028 | 48 | 33 | 2.6 | 8.7 | 0.00 | 0.00 | 0.00 | 73 | 1015.1 |
| 20260506115508 | 48 | 340 | 3.5 | 11.3 | 0.00 | 0.00 | 0.00 | 73 | 1014.8 |
| 20260506115007 | 48 | 5 | 3.5 | 11.3 | 0.00 | 0.00 | 0.00 | 73 | 1014.9 |
| 20260506114534 | 48 | 352 | 2.6 | 9.6 | 0.00 | 0.00 | 0.00 | 73 | 1014.9 |
| 20260506114007 | 48 | 17 | 2.6 | 9.6 | 0.00 | 0.00 | 0.00 | 73 | 1014.7 |
| 20260506113510 | 48 | 52 | 3.5 | 9.6 | 0.00 | 0.00 | 0.00 | 73 | 1014.7 |
| 20260506113032 | 48 | 44 | 4.3 | 9.6 | 0.00 | 0.00 | 0.00 | 73 | 1014.5 |
| 20260506112509 | 48 | 57 | 2.6 | 10.4 | 0.00 | 0.00 | 0.00 | 73 | 1014.5 |
| 20260506112014 | 48 | 341 | 2.6 | 10.4 | 0.00 | 0.00 | 0.00 | 73 | 1014.5 |
| 20260506111526 | 48 | 9 | 3.5 | 12.2 | 0.00 | 0.00 | 0.00 | 73 | 1014.7 |
| 20260506111011 | 48 | 338 | 4.3 | 12.2 | 0.00 | 0.00 | 0.00 | 72 | 1014.9 |
| 20260506110510 | 48 | 24 | 5.2 | 12.2 | 0.00 | 0.00 | 0.00 | 72 | 1015.0 |
| 20260506110029 | 48 | 352 | 3.5 | 12.2 | 0.00 | 0.00 | 0.00 | 72 | 1014.9 |
| 20260506105509 | 48 | 62 | 6.1 | 11.3 | 0.00 | 0.00 | 0.00 | 72 | 1014.9 |
| 20260506105008 | 48 | 346 | 3.5 | 11.3 | 0.00 | 0.00 | 0.00 | 72 | 1014.7 |
| 20260506104527 | 48 | 331 | 3.5 | 11.3 | 0.00 | 0.00 | 0.00 | 72 | 1014.5 |
| 20260506104006 | 48 | 5 | 3.5 | 11.3 | 0.00 | 0.00 | 0.00 | 72 | 1014.5 |
| 20260506103510 | 48 | 30 | 2.6 | 11.3 | 0.00 | 0.00 | 0.00 | 72 | 1014.4 |
| 20260506103029 | 49 | 15 | 4.3 | 11.3 | 0.00 | 0.00 | 0.00 | 72 | 1014.5 |
| 20260506102507 | 49 | 13 | 4.3 | 9.6 | 0.00 | 0.00 | 0.00 | 72 | 1014.6 |
| 20260506102010 | 49 | 352 | 1.7 | 9.6 | 0.00 | 0.00 | 0.00 | 72 | 1014.6 |
| 20260506101527 | 49 | 180 | 3.5 | 9.6 | 0.00 | 0.00 | 0.00 | 72 | 1014.6 |
| 20260506101009 | 49 | 352 | 2.6 | 13.0 | 0.00 | 0.00 | 0.00 | 72 | 1014.7 |
| 20260506100509 | 49 | 329 | 4.3 | 11.3 | 0.00 | 0.00 | 0.00 | 72 | 1014.7 |
| 20260506100034 | 49 | 328 | 3.5 | 13.9 | 0.00 | 0.00 | 0.00 | 72 | 1014.5 |
| 20260506095510 | 49 | 10 | 3.5 | 13.9 | 0.00 | 0.00 | 0.00 | 72 | 1014.4 |
| 20260506095009 | 49 | 346 | 3.5 | 8.7 | 0.00 | 0.00 | 0.00 | 72 | 1014.3 |
| 20260506094528 | 49 | 19 | 3.5 | 8.7 | 0.00 | 0.00 | 0.00 | 72 | 1014.1 |
| 20260506094006 | 49 | 352 | 3.5 | 9.6 | 0.00 | 0.00 | 0.00 | 72 | 1014.4 |
| 20260506093507 | 49 | 346 | 2.6 | 9.6 | 0.00 | 0.00 | 0.00 | 72 | 1014.3 |
| 20260506093030 | 49 | 33 | 2.6 | 9.6 | 0.00 | 0.00 | 0.00 | 72 | 1014.3 |
| 20260506092512 | 49 | 15 | 3.5 | 7.8 | 0.00 | 0.00 | 0.00 | 72 | 1014.1 |
| 20260506092010 | 49 | 60 | 3.5 | 7.8 | 0.00 | 0.00 | 0.00 | 71 | 1014.3 |
| 20260506091530 | 49 | 328 | 1.7 | 7.8 | 0.00 | 0.00 | 0.00 | 71 | 1014.2 |
| 20260506091010 | 49 | 9 | 2.6 | 8.7 | 0.00 | 0.00 | 0.00 | 71 | 1014.2 |
| 20260506090510 | 49 | 65 | 2.6 | 8.7 | 0.00 | 0.00 | 0.00 | 71 | 1013.9 |
| 20260506090027 | 49 | 11 | 2.6 | 13.0 | 0.00 | 0.00 | 0.00 | 71 | 1013.9 |
| 20260506085509 | 49 | 24 | 5.2 | 13.0 | 0.00 | 0.00 | 0.00 | 70 | 1013.7 |
| 20260506085006 | 49 | 17 | 3.5 | 11.3 | 0.00 | 0.00 | 0.00 | 70 | 1013.4 |
| 20260506084528 | 49 | 340 | 2.6 | 10.4 | 0.00 | 0.00 | 0.00 | 70 | 1013.6 |
| 20260506084010 | 49 | 5 | 2.6 | 8.7 | 0.00 | 0.00 | 0.00 | 70 | 1013.6 |
| 20260506083509 | 49 | 9 | 1.7 | 11.3 | 0.00 | 0.00 | 0.00 | 70 | 1013.7 |
| 20260506083019 | 49 | 99 | 1.7 | 11.3 | 0.00 | 0.00 | 0.00 | 70 | 1013.7 |
| 20260506082507 | 49 | 16 | 2.6 | 8.7 | 0.00 | 0.00 | 0.00 | 70 | 1013.5 |
| 20260506082007 | 49 | 348 | 2.6 | 8.7 | 0.00 | 0.00 | 0.00 | 69 | 1013.2 |
| 20260506081528 | 49 | 349 | 1.7 | 7.0 | 0.00 | 0.00 | 0.00 | 69 | 1012.9 |
| 20260506081010 | 49 | 342 | 2.6 | 7.8 | 0.00 | 0.00 | 0.00 | 69 | 1012.8 |
| 20260506080507 | 49 | 11 | 2.6 | 8.7 | 0.00 | 0.00 | 0.00 | 68 | 1012.5 |
| 20260506073510 | 49 | 352 | 3.5 | 11.3 | 0.00 | 0.00 | 0.00 | 66 | 1011.8 |
| 20260506073020 | 49 | 351 | 3.5 | 14.8 | 0.00 | 0.00 | 0.00 | 65 | 1012.0 |
| 20260506072507 | 49 | 58 | 6.1 | 14.8 | 0.00 | 0.00 | 0.00 | 65 | 1012.1 |
| 20260506072008 | 49 | 349 | 4.3 | 9.6 | 0.00 | 0.00 | 0.00 | 65 | 1012.1 |
| 20260506071526 | 49 | 69 | 4.3 | 12.2 | 0.00 | 0.00 | 0.00 | 65 | 1012.0 |
| 20260506071008 | 49 | 348 | 3.5 | 12.2 | 0.00 | 0.00 | 0.00 | 65 | 1012.3 |
| 20260506070504 | 49 | 19 | 3.5 | 11.3 | 0.00 | 0.00 | 0.00 | 65 | 1012.3 |
| 20260506062508 | 49 | 313 | 2.6 | 10.4 | 0.00 | 0.00 | 0.00 | 69 | 1012.3 |
| 20260506062017 | 49 | 352 | 2.6 | 7.8 | 0.00 | 0.00 | 0.00 | 69 | 1012.4 |
| 20260506061534 | 49 | 57 | 3.5 | 9.6 | 0.00 | 0.00 | 0.00 | 70 | 1012.3 |
| 20260506061011 | 49 | 32 | 2.6 | 9.6 | 0.00 | 0.00 | 0.00 | 71 | 1012.5 |
| 20260506060508 | 49 | 61 | 1.7 | 8.7 | 0.00 | 0.00 | 0.00 | 72 | 1012.4 |
| 20260506051013 | 49 | 44 | 4.3 | 11.3 | 0.00 | 0.00 | 0.00 | 75 | 1012.2 |
| 20260506050504 | 49 | 339 | 4.3 | 11.3 | 0.00 | 0.00 | 0.00 | 75 | 1012.5 |
| 20260506045007 | 49 | 51 | 2.6 | 9.6 | 0.00 | 0.00 | 0.00 | 76 | 1012.7 |
| 20260506044520 | 49 | 91 | 3.5 | 11.3 | 0.00 | 0.00 | 0.00 | 76 | 1012.5 |
| 20260506044013 | 49 | 33 | 3.5 | 11.3 | 0.00 | 0.00 | 0.00 | 77 | 1012.5 |
| 20260506043511 | 49 | 346 | 3.5 | 8.7 | 0.00 | 0.00 | 0.00 | 78 | 1012.4 |
| 20260506043025 | 49 | 5 | 2.6 | 7.8 | 0.00 | 0.00 | 0.00 | 79 | 1012.4 |
| 20260506042507 | 49 | 342 | 2.6 | 7.8 | 0.00 | 0.00 | 0.00 | 79 | 1012.5 |
| 20260506042012 | 49 | 5 | 3.5 | 9.6 | 0.00 | 0.00 | 0.00 | 80 | 1012.5 |
| 20260506041524 | 49 | 46 | 3.5 | 8.7 | 0.00 | 0.00 | 0.00 | 80 | 1012.5 |
| 20260506041003 | 49 | 35 | 3.5 | 7.8 | 0.00 | 0.00 | 0.00 | 80 | 1012.5 |
| 20260506040508 | 49 | 19 | 2.6 | 8.7 | 0.00 | 0.00 | 0.00 | 80 | 1012.4 |
| 20260506040021 | 49 | 317 | 1.7 | 10.4 | 0.00 | 0.00 | 0.00 | 80 | 1012.5 |
| 20260506035508 | 49 | 70 | 3.5 | 10.4 | 0.00 | 0.00 | 0.00 | 80 | 1012.5 |
| 20260506035008 | 49 | 82 | 4.3 | 10.4 | 0.00 | 0.00 | 0.00 | 80 | 1012.5 |
| 20260506034522 | 49 | 19 | 2.6 | 9.6 | 0.00 | 0.00 | 0.00 | 80 | 1012.5 |
| 20260506034010 | 49 | 340 | 2.6 | 9.6 | 0.00 | 0.00 | 0.00 | 80 | 1012.3 |
| 20260506033509 | 49 | 93 | 2.6 | 9.6 | 0.00 | 0.00 | 0.00 | 80 | 1012.4 |
| 20260506033027 | 49 | 13 | 3.5 | 11.3 | 0.00 | 0.00 | 0.00 | 79 | 1012.3 |
| 20260506032511 | 49 | 322 | 3.5 | 13.0 | 0.00 | 0.00 | 0.00 | 79 | 1012.2 |
| 20260506032007 | 49 | 328 | 4.3 | 13.0 | 0.00 | 0.00 | 0.00 | 79 | 1012.1 |
| 20260506031534 | 49 | 360 | 4.3 | 13.9 | 0.00 | 0.00 | 0.00 | 79 | 1012.1 |
| 20260506031006 | 49 | 171 | 4.3 | 13.9 | 0.00 | 0.00 | 0.00 | 79 | 1011.8 |
| 20260506030506 | 50 | 59 | 5.2 | 10.4 | 0.00 | 0.00 | 0.00 | 79 | 1011.8 |
| 20260506030019 | 50 | 94 | 2.6 | 9.6 | 0.00 | 0.00 | 0.00 | 79 | 1011.7 |
| 20260506025508 | 50 | 13 | 3.5 | 10.4 | 0.00 | 0.00 | 0.00 | 79 | 1011.7 |
| 20260506025006 | 50 | 352 | 4.3 | 10.4 | 0.00 | 0.00 | 0.00 | 79 | 1011.7 |
| 20260506024535 | 50 | 10 | 4.3 | 11.3 | 0.00 | 0.00 | 0.00 | 79 | 1011.5 |
| 20260506024007 | 50 | 329 | 4.3 | 11.3 | 0.00 | 0.00 | 0.00 | 79 | 1011.5 |
| 20260506023503 | 50 | 32 | 1.7 | 10.4 | 0.00 | 0.00 | 0.00 | 79 | 1011.4 |
| 20260506023008 | 50 | 83 | 3.5 | 11.3 | 0.00 | 0.00 | 0.00 | 78 | 1011.3 |
| 20260506022506 | 50 | 34 | 5.2 | 11.3 | 0.00 | 0.00 | 0.00 | 78 | 1011.0 |
| 20260506022008 | 50 | 93 | 5.2 | 13.9 | 0.00 | 0.00 | 0.00 | 78 | 1011.1 |
| 20260506021514 | 50 | 289 | 5.2 | 13.9 | 0.00 | 0.00 | 0.00 | 78 | 1011.2 |
| 20260506021007 | 50 | 352 | 5.2 | 13.9 | 0.00 | 0.00 | 0.00 | 77 | 1011.0 |
| 20260506020505 | 50 | 45 | 3.5 | 13.9 | 0.00 | 0.00 | 0.00 | 77 | 1011.0 |
| 20260506020005 | 50 | 32 | 3.5 | 11.3 | 0.00 | 0.00 | 0.00 | 77 | 1010.8 |
| 20260506015506 | 51 | 340 | 3.5 | 11.3 | 0.00 | 0.00 | 0.00 | 77 | 1010.7 |
| 20260506015004 | 51 | 5 | 4.3 | 11.3 | 0.00 | 0.00 | 0.00 | 76 | 1010.7 |
| 20260506014513 | 51 | 315 | 3.5 | 11.3 | 0.00 | 0.00 | 0.00 | 76 | 1010.6 |
| 20260506014004 | 51 | 20 | 3.5 | 10.4 | 0.00 | 0.00 | 0.00 | 75 | 1010.6 |
| 20260506013504 | 51 | 5 | 3.5 | 10.4 | 0.00 | 0.00 | 0.00 | 74 | 1010.6 |
| 20260506013007 | 51 | 329 | 3.5 | 10.4 | 0.00 | 0.00 | 0.00 | 74 | 1010.6 |
| 20260506012505 | 51 | 352 | 3.5 | 10.4 | 0.00 | 0.00 | 0.00 | 73 | 1010.4 |
| 20260506012007 | 52 | 335 | 3.5 | 8.7 | 0.00 | 0.00 | 0.00 | 73 | 1010.1 |
| 20260506011537 | 52 | 351 | 1.7 | 7.0 | 0.00 | 0.00 | 0.00 | 73 | 1010.1 |
| 20260506011008 | 52 | 37 | 2.6 | 11.3 | 0.00 | 0.00 | 0.00 | 72 | 1010.1 |
| 20260506010513 | 52 | 350 | 1.7 | 11.3 | 0.00 | 0.00 | 0.00 | 72 | 1010.1 |
| 20260506010003 | 52 | 68 | 2.6 | 9.6 | 0.00 | 0.00 | 0.00 | 72 | 1009.9 |
| 20260506005502 | 52 | 23 | 2.6 | 9.6 | 0.00 | 0.00 | 0.00 | 72 | 1009.9 |
| 20260506005003 | 52 | 99 | 3.5 | 9.6 | 0.00 | 0.00 | 0.00 | 72 | 1009.8 |
| 20260506004506 | 52 | 13 | 3.5 | 12.2 | 0.00 | 0.00 | 0.00 | 72 | 1009.6 |
| 20260506004002 | 52 | 37 | 3.5 | 12.2 | 0.00 | 0.00 | 0.00 | 72 | 1009.5 |
| 20260506003503 | 52 | 11 | 3.5 | 8.7 | 0.00 | 0.00 | 0.00 | 73 | 1009.4 |
| 20260506003015 | 52 | 339 | 2.6 | 8.7 | 0.00 | 0.00 | 0.00 | 72 | 1009.3 |
| 20260506002509 | 53 | 40 | 3.5 | 8.7 | 0.00 | 0.00 | 0.00 | 73 | 1009.3 |
| 20260506002011 | 53 | 84 | 1.7 | 8.7 | 0.00 | 0.00 | 0.00 | 73 | 1009.3 |
| 20260506001519 | 53 | 360 | 3.5 | 8.7 | 0.00 | 0.00 | 0.00 | 73 | 1009.2 |
| 20260506001007 | 53 | 348 | 3.5 | 9.6 | 0.00 | 0.00 | 0.00 | 73 | 1009.2 |
| 20260506000511 | 53 | 75 | 4.3 | 9.6 | 0.00 | 0.00 | 0.00 | 72 | 1009.3 |
| 20260506000004 | 53 | 336 | 2.6 | 10.4 | 0.00 | 0.00 | 0.00 | 73 | 1009.1 |
| 20260505235504 | 53 | 22 | 2.6 | 10.4 | 0.00 | 0.00 | 0.00 | 73 | 1009.3 |
| 20260505235003 | 54 | 5 | 3.5 | 9.6 | 0.00 | 0.00 | 0.00 | 73 | 1009.2 |
| 20260505234515 | 53 | 17 | 4.3 | 12.2 | 0.00 | 0.00 | 0.00 | 73 | 1009.3 |
| 20260505234008 | 54 | 86 | 5.2 | 12.2 | 0.00 | 0.00 | 0.00 | 73 | 1009.1 |
| 20260505233504 | 53 | 15 | 2.6 | 13.0 | 0.00 | 0.00 | 0.00 | 73 | 1009.1 |
| 20260505233016 | 53 | 17 | 6.1 | 13.0 | 0.00 | 0.00 | 0.00 | 73 | 1009.4 |
| 20260505232510 | 54 | 294 | 5.2 | 12.2 | 0.00 | 0.00 | 0.00 | 73 | 1009.3 |
| 20260505232009 | 54 | 17 | 3.5 | 13.9 | 0.00 | 0.00 | 0.00 | 73 | 1009.3 |
| 20260505231522 | 54 | 27 | 3.5 | 13.9 | 0.00 | 0.00 | 0.00 | 72 | 1009.3 |
| 20260505231008 | 54 | 74 | 4.3 | 13.9 | 0.00 | 0.00 | 0.00 | 72 | 1009.0 |
| 20260505230502 | 54 | 352 | 4.3 | 12.2 | 0.00 | 0.00 | 0.00 | 72 | 1009.1 |
| 20260505230009 | 54 | 344 | 2.6 | 12.2 | 0.00 | 0.00 | 0.00 | 73 | 1009.1 |
| 20260505225505 | 54 | 338 | 2.6 | 11.3 | 0.00 | 0.00 | 0.00 | 73 | 1009.1 |
| 20260505225003 | 54 | 360 | 2.6 | 11.3 | 0.00 | 0.00 | 0.00 | 73 | 1009.4 |
| 20260505224515 | 54 | 119 | 3.5 | 9.6 | 0.00 | 0.00 | 0.00 | 73 | 1009.1 |
| 20260505224006 | 54 | 352 | 1.7 | 14.8 | 0.00 | 0.00 | 0.00 | 73 | 1009.0 |
| 20260505223506 | 54 | 163 | 4.3 | 14.8 | 0.00 | 0.00 | 0.00 | 73 | 1008.9 |
| 20260505223023 | 55 | 334 | 4.3 | 14.8 | 0.00 | 0.00 | 0.00 | 73 | 1008.9 |
| 20260505222508 | 55 | 98 | 4.3 | 11.3 | 0.00 | 0.00 | 0.00 | 73 | 1008.8 |
| 20260505222008 | 55 | 5 | 3.5 | 11.3 | 0.00 | 0.00 | 0.00 | 73 | 1008.7 |
| 20260505221524 | 55 | 328 | 4.3 | 13.0 | 0.00 | 0.00 | 0.00 | 73 | 1008.8 |
| 20260505221010 | 55 | 338 | 3.5 | 13.0 | 0.00 | 0.00 | 0.00 | 73 | 1008.7 |
| 20260505220502 | 55 | 92 | 2.6 | 10.4 | 0.00 | 0.00 | 0.00 | 73 | 1008.6 |
| 20260505220004 | 55 | 52 | 2.6 | 10.4 | 0.00 | 0.00 | 0.00 | 74 | 1008.5 |
| 20260505215503 | 55 | 350 | 3.5 | 13.0 | 0.00 | 0.00 | 0.00 | 74 | 1008.3 |
| 20260505215006 | 55 | 110 | 2.6 | 13.0 | 0.00 | 0.00 | 0.00 | 74 | 1008.1 |
| 20260505214520 | 55 | 46 | 4.3 | 12.2 | 0.00 | 0.00 | 0.00 | 74 | 1008.1 |
| 20260505214007 | 55 | 352 | 2.6 | 12.2 | 0.00 | 0.00 | 0.00 | 76 | 1008.0 |
| 20260505213509 | 55 | 9 | 1.7 | 13.0 | 0.00 | 0.00 | 0.00 | 75 | 1008.1 |
| 20260505213024 | 55 | 34 | 2.6 | 13.0 | 0.00 | 0.00 | 0.00 | 76 | 1008.0 |
| 20260505212506 | 55 | 349 | 3.5 | 10.4 | 0.00 | 0.00 | 0.00 | 77 | 1008.2 |
| 20260505212013 | 55 | 327 | 3.5 | 12.2 | 0.00 | 0.00 | 0.00 | 77 | 1008.3 |
| 20260505211530 | 55 | 348 | 2.6 | 12.2 | 0.00 | 0.00 | 0.00 | 77 | 1008.1 |
| 20260505211003 | 56 | 13 | 2.6 | 8.7 | 0.00 | 0.00 | 0.00 | 77 | 1007.7 |
| 20260505210502 | 56 | 333 | 2.6 | 8.7 | 0.00 | 0.00 | 0.00 | 77 | 1007.8 |
| 20260505210008 | 56 | 5 | 3.5 | 12.2 | 0.00 | 0.00 | 0.00 | 77 | 1007.9 |
| 20260505205506 | 56 | 69 | 4.3 | 9.6 | 0.00 | 0.00 | 0.00 | 77 | 1008.1 |
| 20260505205008 | 56 | 32 | 5.2 | 9.6 | 0.00 | 0.00 | 0.00 | 77 | 1008.1 |
| 20260505204516 | 56 | 136 | 3.5 | 10.4 | 0.00 | 0.00 | 0.00 | 77 | 1007.7 |
| 20260505204007 | 56 | 46 | 4.3 | 10.4 | 0.00 | 0.00 | 0.00 | 77 | 1007.3 |
| 20260505203508 | 57 | 19 | 4.3 | 12.2 | 0.00 | 0.00 | 0.00 | 77 | 1007.3 |
| 20260505203021 | 57 | 37 | 4.3 | 12.2 | 0.00 | 0.00 | 0.00 | 77 | 1007.3 |
| 20260505202507 | 57 | 34 | 4.3 | 10.4 | 0.00 | 0.00 | 0.00 | 77 | 1007.4 |
| 20260505202010 | 57 | 32 | 3.5 | 13.0 | 0.00 | 0.00 | 0.00 | 77 | 1007.5 |
| 20260505201530 | 57 | 60 | 2.6 | 13.0 | 0.00 | 0.00 | 0.00 | 76 | 1007.6 |
| 20260505201004 | 58 | 59 | 3.5 | 12.2 | 0.00 | 0.00 | 0.00 | 76 | 1007.6 |
| 20260505200503 | 57 | 352 | 3.5 | 12.2 | 0.00 | 0.00 | 0.00 | 77 | 1007.4 |
| 20260505200013 | 57 | 71 | 3.5 | 12.2 | 0.00 | 0.00 | 0.00 | 76 | 1007.3 |
| 20260505195503 | 58 | 9 | 3.5 | 11.3 | 0.00 | 0.00 | 0.00 | 77 | 1007.3 |
| 20260505195006 | 58 | 360 | 6.1 | 13.9 | 0.00 | 0.00 | 0.00 | 76 | 1007.4 |
| 20260505194518 | 58 | 351 | 3.5 | 13.9 | 0.00 | 0.00 | 0.00 | 76 | 1007.4 |
| 20260505194007 | 58 | 11 | 1.7 | 12.2 | 0.00 | 0.00 | 0.00 | 76 | 1007.4 |
| 20260505193509 | 59 | 11 | 5.2 | 12.2 | 0.00 | 0.00 | 0.00 | 76 | 1007.0 |
| 20260505193025 | 58 | 308 | 4.3 | 12.2 | 0.00 | 0.00 | 0.00 | 76 | 1006.7 |
| 20260505192508 | 59 | 9 | 4.3 | 12.2 | 0.00 | 0.00 | 0.00 | 76 | 1007.2 |
| 20260505192014 | 58 | 322 | 3.5 | 13.0 | 0.00 | 0.00 | 0.00 | 77 | 1007.4 |
| 20260505191509 | 59 | 346 | 4.3 | 13.0 | 0.00 | 0.00 | 0.00 | 76 | 1007.2 |
| 20260505191006 | 59 | 352 | 2.6 | 10.4 | 0.00 | 0.00 | 0.00 | 76 | 1007.1 |
| 20260505190505 | 59 | 13 | 2.6 | 11.3 | 0.00 | 0.00 | 0.00 | 76 | 1006.5 |
| 20260505190014 | 60 | 304 | 5.2 | 11.3 | 0.00 | 0.00 | 0.00 | 75 | 1006.5 |
| 20260505185508 | 60 | 96 | 2.6 | 10.4 | 0.00 | 0.00 | 0.00 | 76 | 1005.9 |
| 20260505185009 | 60 | 36 | 2.6 | 11.3 | 0.00 | 0.00 | 0.00 | 75 | 1006.5 |
| 20260505184525 | 60 | 83 | 2.6 | 11.3 | 0.00 | 0.00 | 0.00 | 77 | 1006.9 |
| 20260505184008 | 60 | 62 | 4.3 | 11.3 | 0.00 | 0.00 | 0.00 | 76 | 1006.9 |
| 20260505183511 | 60 | 32 | 4.3 | 13.0 | 0.00 | 0.00 | 0.00 | 76 | 1006.7 |
| 20260505183026 | 60 | 26 | 5.2 | 13.0 | 0.00 | 0.00 | 0.00 | 77 | 1006.6 |
| 20260505182507 | 60 | 338 | 3.5 | 9.6 | 0.00 | 0.00 | 0.00 | 77 | 1006.3 |
| 20260505182012 | 60 | 44 | 3.5 | 10.4 | 0.00 | 0.00 | 0.00 | 77 | 1006.4 |
| 20260505181509 | 60 | 11 | 3.5 | 11.3 | 0.00 | 0.00 | 0.00 | 77 | 1006.4 |
| 20260505181005 | 60 | 344 | 3.5 | 15.6 | 0.00 | 0.00 | 0.00 | 77 | 1006.3 |
| 20260505180507 | 60 | 80 | 4.3 | 15.6 | 0.00 | 0.00 | 0.00 | 77 | 1006.1 |
| 20260505180020 | 61 | 72 | 5.2 | 14.8 | 0.00 | 0.00 | 0.00 | 76 | 1005.9 |
| 20260505175506 | 61 | 34 | 5.2 | 13.0 | 0.00 | 0.00 | 0.00 | 76 | 1005.4 |
| 20260505175009 | 61 | 23 | 5.2 | 13.9 | 0.00 | 0.00 | 0.00 | 75 | 1005.5 |
| 20260505174522 | 62 | 311 | 4.3 | 13.9 | 0.00 | 0.00 | 0.00 | 75 | 1005.5 |
| 20260505174010 | 62 | 323 | 6.1 | 13.9 | 0.00 | 0.00 | 0.00 | 74 | 1005.5 |
| 20260505173510 | 63 | 340 | 4.3 | 13.9 | 0.00 | 0.00 | 0.00 | 74 | 1005.3 |
| 20260505173028 | 64 | 327 | 4.3 | 13.0 | 0.00 | 0.00 | 0.00 | 74 | 1005.5 |
| 20260505172506 | 65 | 43 | 6.1 | 13.0 | 0.00 | 0.00 | 0.00 | 73 | 1005.4 |
| 20260505172003 | 66 | 306 | 3.5 | 14.8 | 0.00 | 0.00 | 0.00 | 72 | 1005.2 |
| 20260505171512 | 68 | 44 | 7.0 | 13.9 | 0.00 | 0.00 | 0.00 | 72 | 1005.2 |
| 20260505171007 | 68 | 333 | 6.1 | 13.9 | 0.00 | 0.00 | 0.00 | 71 | 1004.9 |
| 20260505170508 | 69 | 9 | 5.2 | 13.0 | 0.00 | 0.00 | 0.00 | 71 | 1004.6 |
| 20260505170023 | 70 | 348 | 7.0 | 13.0 | 0.00 | 0.00 | 0.00 | 70 | 1004.2 |
| 20260505165508 | 71 | 288 | 5.2 | 13.9 | 0.00 | 0.00 | 0.00 | 70 | 1004.1 |
| 20260505165009 | 72 | 40 | 6.1 | 13.9 | 0.00 | 0.00 | 0.00 | 68 | 1003.9 |
| 20260505164526 | 74 | 11 | 5.2 | 11.3 | 0.00 | 0.00 | 0.00 | 64 | 1003.7 |
| 20260505164010 | 77 | 311 | 1.7 | 5.2 | 0.00 | 0.00 | 0.00 | 62 | 1003.4 |
| 20260505163514 | 77 | 360 | 0.9 | 2.6 | 0.00 | 0.00 | 0.00 | 66 | 1003.3 |
| 20260505163028 | 77 | 274 | 0.9 | 2.6 | 0.00 | 0.00 | 0.00 | 67 | 1003.3 |
| 20260505162506 | 76 | 255 | 0.9 | 5.2 | 0.00 | 0.00 | 0.00 | 66 | 1003.1 |
| 20260505162006 | 75 | 222 | 0.0 | 5.2 | 0.00 | 0.00 | 0.00 | 66 | 1003.1 |
| 20260505161514 | 75 | 254 | 1.7 | 3.5 | 0.00 | 0.00 | 0.00 | 66 | 1003.1 |
| 20260505161006 | 76 | 253 | 0.0 | 2.6 | 0.00 | 0.00 | 0.00 | 68 | 1002.9 |
| 20260505160510 | 75 | 253 | 0.9 | 2.6 | 0.00 | 0.00 | 0.00 | 68 | 1002.8 |
| 20260505153028 | 73 | 258 | 1.7 | 3.5 | 0.00 | 0.00 | 0.00 | 71 | 1002.3 |
| 20260505152506 | 74 | 254 | 1.7 | 3.5 | 0.00 | 0.00 | 0.00 | 72 | 1002.4 |
| 20260505152008 | 73 | 272 | 1.7 | 5.2 | 0.00 | 0.00 | 0.00 | 72 | 1002.4 |
| 20260505151520 | 74 | 301 | 0.9 | 5.2 | 0.00 | 0.00 | 0.00 | 71 | 1002.2 |
| 20260505151009 | 73 | 292 | 0.0 | 3.5 | 0.00 | 0.00 | 0.00 | 73 | 1002.3 |
| 20260505150507 | 73 | 292 | 0.0 | 3.5 | 0.00 | 0.00 | 0.00 | 73 | 1002.3 |
| 20260505140503 | 72 | 237 | 0.9 | 4.3 | 0.00 | 0.00 | 0.00 | 75 | 1001.6 |